Temp
-25 -24 -24 -23 -23 -22 -21 -21 -21 -20 -20 -18 -17 -17 -16 -15 -16 -15 -15 -14 -13 -13 -14 -13 -13 -13 -12 -13 -13 -12 -13 -13 -13 -13 -14 -14 -14 -14 -14 -14 -13 -13 -13 -13
-25 -25 -25 -25 -24 -23 -22 -21 -21 -21 -20 -19 -18 -18 -17 -17 -16 -16 -16 -15 -14 -14 -14 -14 -14 -14 -13 -13 -13 -13 -13 -13 -13 -14 -14 -14 -14 -14 -14 -14 -14 -14 -13 -13
-25 -26 -26 -25 -23 -24 -24 -24 -23 -22 -21 -20 -19 -19 -18 -18 -17 -16 -17 -16 -16 -15 -15 -15 -15 -15 -14 -14 -14 -14 -14 -14 -14 -14 -14 -15 -15 -15 -15 -15 -14 -14 -14 -14
-26 -26 -26 -24 -24 -24 -24 -24 -24 -23 -22 -21 -20 -20 -19 -18 -18 -17 -17 -16 -16 -16 -16 -15 -15 -16 -16 -15 -15 -15 -14 -14 -14 -14 -15 -15 -15 -15 -15 -15 -15 -15 -15 -15
-27 -27 -26 -25 -25 -25 -25 -24 -25 -24 -23 -22 -21 -21 -21 -20 -19 -18 -17 -16 -16 -16 -16 -16 -15 -17 -17 -16 -16 -15 -15 -15 -15 -16 -16 -16 -15 -16 -15 -16 -16 -16 -15 -15
-27 -27 -25 -25 -26 -27 -28 -25 -24 -25 -24 -24 -23 -22 -20 -21 -20 -19 -18 -18 -17 -17 -17 -16 -17 -17 -16 -17 -17 -16 -16 -16 -16 -16 -16 -17 -17 -16 -16 -16 -16 -16 -16 -16
-27 -27 -26 -25 -27 -27 -26 -26 -26 -26 -26 -25 -24 -24 -23 -21 -21 -21 -20 -19 -19 -18 -18 -17 -18 -18 -17 -17 -17 -17 -17 -17 -17 -17 -17 -17 -17 -17 -16 -17 -17 -16 -16 -16
-27 -27 -26 -26 -26 -26 -26 -25 -26 -26 -26 -25 -25 -24 -23 -23 -22 -21 -21 -20 -20 -20 -19 -18 -18 -18 -18 -18 -18 -18 -17 -17 -17 -17 -17 -17 -17 -17 -17 -17 -17 -17 -17 -17
-26 -26 -26 -27 -26 -26 -26 -25 -25 -25 -25 -26 -26 -26 -25 -24 -22 -22 -22 -21 -21 -21 -20 -19 -19 -19 -18 -18 -18 -18 -18 -18 -18 -17 -17 -18 -17 -17 -18 -18 -17 -17 -17 -17
-27 -26 -26 -26 -26 -26 -26 -26 -25 -25 -25 -26 -26 -25 -25 -25 -25 -25 -24 -22 -22 -22 -21 -21 -20 -20 -19 -18 -18 -18 -17 -18 -18 -18 -18 -18 -18 -18 -18 -18 -18 -17 -17 -17
-25 -26 -26 -26 -26 -26 -26 -26 -25 -25 -25 -25 -25 -25 -25 -25 -25 -25 -25 -25 -23 -22 -22 -22 -21 -21 -20 -19 -19 -19 -18 -18 -19 -18 -18 -18 -18 -18 -18 -18 -18 -18 -18 -18
-25 -26 -25 -26 -26 -26 -25 -25 -25 -25 -25 -25 -25 -25 -25 -24 -24 -24 -24 -25 -24 -24 -22 -22 -22 -21 -21 -20 -19 -19 -19 -19 -19 -19 -19 -19 -18 -18 -18 -18 -18 -18 -18 -18
-25 -25 -25 -25 -25 -26 -25 -25 -25 -25 -25 -25 -25 -25 -25 -24 -23 -24 -24 -24 -25 -25 -24 -22 -22 -21 -21 -20 -20 -20 -19 -19 -19 -19 -19 -19 -18 -18 -18 -18 -19 -19 -19 -18
-25 -25 -25 -25 -25 -25 -25 -25 -25 -25 -25 -25 -24 -25 -24 -23 -23 -23 -24 -25 -25 -25 -24 -23 -22 -21 -21 -20 -20 -20 -19 -19 -19 -19 -19 -18 -18 -18 -18 -19 -19 -19 -19 -18
-25 -25 -24 -24 -25 -25 -25 -25 -25 -25 -25 -24 -24 -24 -23 -23 -23 -23 -24 -25 -25 -25 -24 -22 -22 -21 -21 -21 -20 -20 -20 -20 -20 -19 -19 -18 -18 -18 -18 -19 -19 -19 -19 -19
-26 -26 -25 -25 -25 -25 -25 -25 -25 -24 -24 -24 -24 -23 -23 -24 -23 -24 -24 -25 -25 -24 -24 -22 -22 -22 -22 -21 -20 -20 -20 -19 -19 -19 -20 -20 -19 -19 -19 -19 -20 -19 -19 -19
-25 -26 -26 -25 -25 -25 -25 -25 -25 -24 -24 -24 -23 -23 -23 -23 -23 -23 -24 -24 -24 -24 -23 -22 -22 -21 -21 -20 -20 -20 -19 -20 -20 -20 -20 -19 -19 -19 -19 -19 -19 -19 -20 -20
-26 -26 -25 -25 -25 -25 -25 -25 -25 -24 -24 -24 -23 -23 -22 -22 -22 -23 -23 -24 -23 -23 -23 -22 -22 -21 -20 -19 -20 -20 -20 -20 -19 -19 -19 -19 -19 -19 -19 -19 -20 -20 -20 -20
-26 -26 -26 -25 -24 -24 -25 -25 -25 -24 -24 -23 -23 -23 -22 -22 -22 -22 -22 -22 -23 -22 -22 -22 -21 -21 -20 -20 -20 -20 -20 -20 -19 -19 -20 -20 -20 -20 -20 -20 -20 -20 -20 -20
-27 -26 -26 -25 -25 -24 -25 -25 -24 -24 -24 -23 -23 -23 -23 -22 -22 -22 -22 -22 -22 -22 -22 -21 -21 -21 -20 -21 -21 -20 -20 -20 -20 -20 -20 -20 -20 -20 -20 -20 -20 -20 -21 -21
-27 -27 -26 -25 -25 -25 -25 -25 -25 -24 -24 -23 -24 -23 -23 -23 -22 -22 -22 -22 -22 -22 -22 -21 -21 -20 -21 -21 -20 -20 -20 -20 -20 -20 -20 -20 -20 -20 -20 -20 -21 -21 -21 -21
-27 -27 -26 -26 -25 -25 -25 -25 -25 -25 -24 -24 -24 -23 -23 -23 -23 -23 -22 -23 -22 -22 -22 -22 -22 -21 -21 -21 -21 -21 -20 -20 -20 -21 -21 -20 -21 -21 -21 -21 -21 -22 -22 -22
-28 -27 -26 -26 -26 -25 -25 -25 -25 -25 -25 -24 -24 -24 -24 -24 -24 -23 -23 -23 -23 -23 -23 -23 -22 -22 -22 -22 -21 -21 -22 -22 -22 -21 -21 -21 -21 -21 -21 -22 -22 -23 -23 -23
-28 -27 -27 -27 -26 -26 -26 -26 -25 -25 -26 -25 -25 -25 -24 -24 -24 -24 -24 -24 -23 -23 -23 -23 -23 -23 -23 -23 -23 -22 -22 -22 -22 -22 -22 -22 -22 -22 -23 -23 -23 -24 -25 -25
-28 -28 -28 -27 -27 -26 -26 -26 -26 -26 -26 -26 -26 -25 -25 -25 -25 -24 -24 -24 -24 -23 -23 -23 -23 -23 -23 -23 -22 -22 -22 -22 -22 -22 -23 -23 -23 -24 -24 -24 -25 -26 -26 -27
-29 -28 -28 -28 -27 -27 -27 -26 -26 -26 -26 -26 -26 -26 -26 -26 -25 -25 -25 -24 -24 -24 -24 -23 -23 -23 -23 -23 -23 -23 -24 -24 -24 -23 -24 -24 -25 -25 -25 -25 -26 -26 -27 -27
-29 -29 -28 -28 -28 -28 -27 -27 -27 -26 -26 -26 -26 -26 -25 -25 -25 -25 -25 -25 -25 -24 -24 -24 -24 -24 -24 -24 -24 -24 -24 -24 -24 -24 -25 -25 -25 -25 -26 -26 -27 -27 -27 -27
Height
5503 5507 5509 5514 5518 5522 5525 5530 5528 5545 5544 5572 5582 5582 5583 5582 5585 5590 5599 5607 5614 5619 5622 5627 5634 5638 5641 5645 5649 5653 5656 5660 5664 5666 5668 5669 5671 5674 5677 5677 5680 5682 5682 5682
5494 5497 5497 5498 5505 5515 5518 5518 5516 5524 5529 5558 5566 5555 5566 5567 5566 5573 5580 5588 5597 5602 5606 5610 5614 5619 5625 5629 5634 5639 5643 5648 5652 5655 5656 5658 5660 5662 5663 5666 5668 5670 5671 5671
5485 5485 5484 5486 5508 5502 5501 5503 5507 5507 5524 5538 5537 5539 5548 5550 5550 5556 5563 5568 5578 5583 5588 5595 5600 5606 5610 5614 5620 5625 5630 5635 5638 5642 5645 5646 5647 5650 5653 5655 5657 5658 5658 5658
5478 5475 5471 5487 5486 5491 5492 5494 5495 5493 5500 5514 5521 5521 5524 5528 5536 5540 5544 5549 5557 5565 5572 5580 5585 5589 5595 5600 5605 5611 5617 5622 5625 5628 5631 5633 5635 5640 5642 5643 5644 5644 5645 5645
5467 5469 5470 5477 5484 5475 5469 5471 5475 5478 5486 5497 5502 5502 5501 5517 5524 5525 5528 5531 5538 5549 5557 5566 5570 5572 5579 5586 5592 5597 5604 5608 5613 5615 5617 5621 5623 5626 5629 5630 5631 5632 5632 5632
5464 5462 5459 5465 5466 5461 5455 5453 5469 5459 5468 5476 5480 5473 5492 5506 5502 5506 5511 5514 5522 5529 5537 5547 5553 5555 5563 5572 5578 5584 5590 5594 5596 5600 5604 5606 5609 5612 5615 5616 5617 5618 5619 5619
5458 5452 5451 5457 5455 5449 5453 5455 5447 5449 5453 5457 5459 5459 5470 5481 5482 5484 5487 5494 5502 5506 5513 5527 5534 5538 5546 5554 5564 5570 5572 5577 5581 5585 5588 5592 5594 5597 5599 5602 5603 5605 5605 5605
5450 5446 5445 5446 5445 5443 5442 5442 5440 5439 5440 5437 5438 5441 5449 5461 5459 5464 5469 5474 5481 5487 5492 5503 5509 5517 5527 5537 5549 5550 5555 5560 5564 5569 5573 5577 5581 5582 5584 5587 5588 5590 5591 5591
5442 5442 5441 5435 5432 5431 5429 5429 5430 5428 5428 5426 5426 5427 5429 5434 5437 5441 5446 5452 5459 5465 5473 5482 5487 5497 5508 5520 5528 5535 5540 5545 5549 5553 5557 5562 5565 5568 5570 5572 5575 5576 5576 5577
5433 5435 5428 5427 5425 5422 5421 5418 5418 5419 5418 5418 5416 5418 5420 5419 5419 5417 5420 5427 5435 5441 5450 5463 5468 5477 5489 5501 5509 5518 5526 5531 5535 5539 5543 5547 5549 5553 5556 5559 5561 5563 5563 5565
5426 5425 5420 5418 5416 5412 5411 5410 5409 5409 5409 5407 5405 5408 5407 5408 5407 5405 5406 5406 5409 5415 5427 5442 5453 5461 5472 5483 5493 5499 5507 5513 5519 5525 5529 5533 5536 5540 5543 5546 5548 5548 5550 5552
5419 5419 5413 5413 5409 5404 5402 5401 5399 5398 5398 5398 5396 5396 5395 5393 5393 5390 5389 5390 5389 5393 5406 5423 5437 5446 5458 5466 5476 5483 5489 5497 5504 5509 5513 5517 5521 5525 5528 5533 5537 5536 5537 5537
5414 5411 5407 5407 5403 5398 5396 5394 5391 5390 5389 5389 5388 5385 5383 5379 5375 5372 5370 5370 5373 5377 5387 5405 5422 5434 5445 5454 5462 5468 5473 5481 5487 5492 5497 5504 5507 5512 5517 5518 5520 5522 5523 5524
5408 5404 5401 5399 5395 5391 5387 5386 5384 5382 5382 5379 5377 5377 5372 5366 5360 5356 5354 5356 5359 5363 5378 5393 5411 5425 5434 5442 5450 5454 5458 5466 5472 5478 5486 5493 5496 5500 5503 5504 5506 5507 5509 5509
5402 5399 5395 5393 5390 5386 5382 5379 5377 5375 5375 5374 5371 5366 5363 5357 5351 5346 5344 5343 5348 5358 5373 5389 5405 5415 5423 5430 5440 5444 5450 5456 5461 5466 5472 5477 5482 5487 5491 5491 5492 5494 5496 5495
5396 5393 5391 5387 5384 5380 5377 5373 5371 5371 5369 5367 5363 5361 5357 5354 5349 5346 5345 5346 5352 5362 5373 5384 5396 5406 5413 5422 5429 5434 5441 5446 5450 5456 5460 5464 5469 5473 5476 5479 5481 5482 5482 5483
5388 5387 5385 5382 5378 5374 5371 5368 5367 5366 5364 5361 5359 5357 5353 5350 5348 5347 5348 5351 5355 5364 5372 5383 5393 5401 5408 5414 5421 5427 5430 5434 5439 5445 5451 5455 5458 5461 5464 5467 5468 5470 5471 5473
5381 5380 5378 5376 5373 5369 5367 5366 5364 5362 5359 5359 5357 5352 5348 5345 5344 5345 5348 5352 5358 5366 5373 5381 5388 5395 5402 5405 5412 5417 5422 5426 5432 5437 5441 5444 5447 5451 5454 5456 5458 5462 5463 5465
5375 5374 5372 5370 5367 5365 5364 5363 5362 5361 5359 5358 5355 5351 5346 5340 5341 5344 5348 5353 5359 5366 5371 5376 5383 5388 5395 5401 5407 5413 5417 5420 5424 5427 5431 5434 5438 5442 5446 5450 5453 5456 5457 5458
5370 5368 5366 5365 5363 5362 5361 5361 5360 5359 5359 5358 5356 5354 5349 5343 5344 5347 5351 5355 5361 5366 5370 5373 5377 5384 5392 5397 5401 5406 5408 5412 5417 5422 5426 5430 5435 5440 5443 5445 5447 5449 5449 5450
5366 5364 5363 5360 5359 5359 5359 5359 5359 5359 5359 5359 5357 5356 5355 5351 5348 5350 5354 5357 5361 5366 5370 5373 5378 5383 5388 5393 5398 5402 5406 5410 5414 5418 5423 5428 5431 5433 5435 5437 5439 5441 5441 5442
5361 5360 5359 5357 5356 5357 5357 5358 5359 5358 5360 5360 5360 5360 5359 5358 5356 5356 5356 5358 5361 5365 5370 5374 5379 5383 5385 5390 5393 5398 5402 5407 5411 5416 5419 5423 5424 5426 5428 5430 5432 5433 5433 5435
5356 5356 5356 5354 5354 5354 5355 5357 5358 5357 5358 5359 5360 5361 5361 5361 5362 5361 5362 5364 5365 5367 5370 5374 5379 5383 5385 5387 5389 5395 5400 5405 5409 5412 5415 5417 5419 5420 5422 5423 5426 5426 5427 5428
5351 5351 5352 5352 5352 5352 5354 5355 5356 5357 5356 5358 5360 5359 5360 5361 5362 5363 5365 5366 5368 5370 5372 5375 5377 5381 5385 5389 5390 5393 5397 5401 5403 5405 5408 5410 5412 5414 5415 5417 5419 5421 5422 5424
5346 5347 5349 5349 5349 5349 5351 5352 5353 5354 5355 5357 5356 5356 5358 5360 5362 5364 5364 5366 5368 5370 5372 5374 5377 5381 5384 5386 5388 5391 5394 5396 5398 5400 5403 5405 5408 5409 5410 5413 5415 5417 5420 5422
5341 5343 5345 5346 5346 5346 5347 5348 5349 5351 5352 5353 5354 5354 5355 5356 5358 5359 5361 5363 5366 5369 5371 5373 5375 5377 5380 5382 5385 5388 5390 5392 5394 5396 5399 5402 5404 5405 5406 5409 5412 5415 5417 5419
5336 5338 5340 5341 5342 5343 5343 5344 5345 5346 5347 5348 5350 5351 5352 5353 5355 5356 5358 5360 5362 5365 5367 5369 5371 5373 5376 5379 5382 5385 5387 5389 5391 5393 5396 5400 5401 5403 5405 5407 5409 5411 5414 5416
Wind_Speed
47 48 52 56 64 63 58 60 71 76 78 69 65 68 75 78 75 70 63 65 64 62 60 60 59 61 62 58 55 52 52 53 51 48 49 52 53 51 50 52 48 44 44 44
51 47 48 55 57 61 71 65 57 60 68 68 66 75 71 75 81 75 69 67 64 63 61 59 56 55 57 60 59 55 52 51 49 51 53 54 53 52 53 52 49 47 46 46
54 47 51 57 48 54 60 65 73 79 63 57 74 80 75 75 80 77 73 75 72 63 63 57 56 55 57 60 59 58 56 55 54 51 54 55 53 51 52 54 53 50 49 49
41 43 56 58 59 57 54 55 58 65 69 73 66 58 70 80 82 76 72 75 76 66 64 63 60 54 57 60 60 62 61 61 61 59 57 60 58 52 53 55 54 55 54 53
32 29 29 41 49 53 57 69 63 66 68 67 69 77 77 67 72 75 77 74 70 67 68 66 63 59 55 57 59 60 59 60 61 60 59 57 59 57 53 54 57 57 59 56
33 35 31 18 21 26 32 60 67 67 72 65 66 76 73 75 75 83 85 86 79 80 75 67 64 69 66 62 64 62 63 63 66 64 61 60 59 60 58 58 59 62 56 53
23 30 35 27 27 32 31 30 34 36 48 62 73 78 72 73 81 88 86 83 81 82 82 80 76 69 70 69 66 69 69 69 68 68 67 65 63 59 57 58 54 51 51 52
27 31 29 25 26 31 29 28 31 35 34 39 46 56 68 70 72 76 80 84 89 89 87 80 74 72 69 66 56 50 64 69 72 74 67 59 56 59 61 53 48 51 53 52
30 27 26 31 33 33 33 33 32 33 35 38 39 37 37 49 73 84 80 76 81 80 88 86 83 73 69 70 64 57 54 54 51 56 54 53 61 62 58 53 53 51 51 52
29 27 34 35 34 36 35 36 34 34 29 29 33 32 30 34 34 42 57 82 80 75 76 78 82 78 72 72 67 66 65 68 57 46 46 46 54 54 52 50 49 47 53 54
32 28 24 23 27 33 35 35 35 31 27 26 29 26 32 33 34 38 39 47 71 79 76 72 67 70 73 72 66 70 66 67 59 51 53 51 57 61 58 54 53 55 54 55
30 27 26 19 20 21 25 27 28 24 25 29 32 32 36 39 40 46 43 46 49 61 79 77 67 55 53 54 64 58 62 58 58 55 55 55 58 57 58 55 55 58 52 50
28 28 29 26 27 25 22 20 21 26 29 28 30 33 39 39 35 41 39 42 36 49 58 60 52 50 42 54 47 48 54 57 53 53 58 61 59 56 54 51 50 50 49 47
29 30 28 25 23 25 27 23 24 23 25 28 30 34 35 36 38 41 37 35 40 44 50 45 47 40 40 43 34 38 44 51 54 54 59 56 51 51 52 48 46 45 43 46
28 27 23 24 24 25 24 23 21 21 23 26 30 26 28 28 25 27 24 21 27 38 45 38 37 38 39 36 34 28 35 38 40 41 46 49 51 53 44 45 45 44 49 50
26 25 26 28 27 28 25 22 25 20 22 25 21 20 17 20 21 17 11 14 24 35 35 40 32 29 30 33 29 26 27 42 46 44 41 36 39 41 43 45 44 48 50 47
26 25 28 27 27 28 24 20 15 15 19 19 15 20 16 17 17 15 16 20 25 24 31 33 36 34 28 29 35 32 40 34 29 26 32 35 37 39 42 46 51 44 29 27
28 28 27 24 23 25 22 15 11 11 13 14 16 16 17 21 17 14 20 25 26 26 27 27 26 26 26 31 34 26 24 24 28 31 33 34 33 36 44 35 23 22 24 26
23 23 23 21 19 20 17 12 4 10 12 10 14 14 20 9 11 12 16 24 28 31 31 32 29 37 33 28 25 19 19 21 23 27 29 25 25 24 20 22 26 28 27 26
21 19 20 19 17 15 13 11 4 13 11 5 5 10 12 1 11 16 16 21 23 21 24 29 32 28 40 31 25 22 20 21 21 22 21 19 17 20 25 26 25 22 20 22
19 16 15 14 12 12 9 10 6 6 3 2 2 6 8 14 12 15 16 16 16 13 13 22 31 36 35 32 31 24 21 22 20 19 20 22 23 19 15 15 16 18 19 21
18 16 11 9 9 10 9 10 12 9 3 4 3 6 5 11 11 15 18 16 15 17 16 15 18 24 26 23 23 21 24 21 21 21 19 18 15 13 14 16 19 19 18 19
18 17 12 5 6 9 11 10 9 11 8 8 6 6 3 3 7 9 10 12 14 14 14 14 16 16 12 11 17 18 15 13 15 15 14 13 14 15 17 17 18 16 16 15
16 15 13 6 6 10 10 11 10 12 10 13 7 10 9 7 5 2 1 3 5 6 6 4 4 3 1 2 2 6 8 11 11 12 14 16 17 17 15 15 15 15 13 12
16 14 13 11 7 11 13 15 15 21 16 12 18 19 15 12 11 10 7 5 5 4 3 3 4 7 10 11 11 13 14 16 16 15 17 17 17 15 14 13 11 10 11 11
17 18 16 15 12 11 13 15 17 20 23 23 21 17 15 14 13 11 10 11 12 11 11 11 12 12 14 15 16 16 15 14 14 15 16 16 14 13 12 12 12 12 11 10
15 19 19 20 18 15 14 16 17 18 20 22 22 20 18 17 16 14 14 14 15 16 16 15 14 14 15 15 16 16 16 16 16 16 16 16 15 14 14 13 13 13 13 13
Wind_Direction
243 242 243 242 237 230 230 239 245 242 240 236 233 239 248 251 251 249 250 250 244 244 242 244 243 244 244 246 246 245 241 241 241 238 241 244 247 250 254 258 259 262 269 273
249 247 247 246 244 240 237 237 239 242 245 241 240 238 237 240 246 246 245 245 241 244 244 239 236 238 241 243 242 240 236 235 238 242 241 242 247 250 253 257 261 266 269 268
256 269 266 250 247 251 248 247 249 246 242 241 240 241 239 236 238 241 247 252 247 238 234 233 235 236 238 240 240 237 234 237 236 237 239 243 249 253 256 258 260 267 268 269
274 275 271 258 255 254 257 255 255 255 252 243 234 238 242 244 244 248 250 245 240 234 236 238 234 235 235 236 237 238 238 240 242 241 239 242 248 253 255 255 260 265 270 271
275 279 281 268 265 263 263 257 257 259 258 251 247 246 238 241 238 238 238 238 238 239 239 239 237 232 236 236 237 240 241 243 244 245 245 249 250 254 256 260 263 267 270 272
285 286 286 280 278 273 276 261 256 258 256 253 254 252 244 238 238 238 240 242 244 246 243 242 239 245 244 237 243 244 243 246 247 250 254 255 260 260 261 264 263 267 267 268
287 283 287 299 290 280 284 290 286 280 270 263 258 257 253 242 241 242 241 242 243 246 246 243 244 248 248 248 255 245 245 245 246 248 254 257 260 261 258 261 264 266 267 269
281 283 300 294 281 278 275 264 271 275 272 271 268 261 255 249 248 246 245 246 247 245 248 246 243 245 244 241 240 241 240 243 245 249 254 249 250 258 257 261 266 270 270 273
287 296 293 289 282 278 275 274 275 275 268 263 268 272 271 260 253 250 249 249 248 248 245 245 248 246 243 235 236 238 237 243 247 246 248 248 250 255 255 259 266 271 268 271
294 307 291 282 277 279 280 281 285 284 284 267 267 268 269 267 268 266 256 246 246 248 245 245 247 246 247 241 242 248 238 242 245 242 241 239 246 248 258 263 267 260 266 272
304 315 311 301 288 275 275 283 288 288 280 271 270 271 276 273 261 263 269 258 248 249 248 247 248 249 248 244 251 255 246 245 243 244 245 241 248 250 256 263 269 268 272 275
314 314 315 340 320 295 285 288 285 274 268 273 279 281 285 282 278 276 268 260 252 240 240 243 246 246 243 244 245 251 250 244 246 251 254 253 256 262 264 269 260 271 275 276
308 308 308 312 309 306 303 296 284 270 275 280 279 284 294 295 287 279 268 257 247 241 221 228 230 229 241 239 245 246 249 249 252 253 255 255 258 268 271 269 268 271 276 282
304 309 314 313 311 303 292 292 283 281 278 279 288 294 295 285 292 282 275 250 247 235 213 205 218 227 240 239 232 237 243 248 251 254 254 255 259 259 263 267 265 266 264 273
293 299 304 306 307 303 297 278 270 276 278 288 290 300 309 308 291 291 274 261 229 215 201 195 211 222 230 214 226 236 237 235 239 243 245 248 249 253 248 257 259 257 261 262
285 291 295 305 300 301 301 287 268 274 289 293 297 297 299 298 293 267 277 216 199 193 196 195 198 215 221 221 239 245 241 225 244 241 238 240 244 247 247 252 256 259 261 269
283 287 294 299 301 301 301 289 275 281 294 301 295 315 293 288 287 264 229 208 196 198 195 198 215 224 236 239 244 252 259 217 212 230 239 239 241 250 253 251 252 261 250 246
286 292 295 296 296 295 301 279 270 309 297 333 329 322 311 289 262 243 220 200 193 197 192 200 210 216 226 209 237 224 221 231 232 234 230 234 242 250 251 247 230 230 235 243
288 293 298 299 291 290 299 262 283 278 292 343 334 326 322 317 197 181 192 204 206 207 200 201 210 217 211 224 221 221 242 223 235 238 242 237 232 218 214 211 222 239 251 258
289 298 302 297 285 288 287 244 242 276 293 320 302 11 360 47 180 186 188 195 199 208 213 213 208 211 211 213 224 243 247 234 214 203 199 193 197 214 226 240 250 255 261 262
286 296 299 291 280 273 253 235 255 300 235 251 68 70 41 60 140 176 182 193 206 220 220 202 199 212 222 227 218 226 192 189 195 195 199 219 228 232 242 255 262 264 264 266
282 291 300 285 270 249 238 235 243 259 202 131 94 115 96 70 77 93 122 141 172 180 190 197 207 205 191 178 180 186 195 203 207 215 223 232 244 257 263 267 265 262 261 259
275 280 292 279 264 239 231 233 234 239 215 217 261 267 289 73 71 84 109 117 124 120 128 143 163 171 167 175 177 191 206 219 226 236 243 252 264 260 252 251 254 248 241 235
256 268 279 274 232 229 232 230 207 212 231 229 228 270 265 265 277 326 80 89 122 137 154 142 123 124 160 232 233 225 227 222 238 247 252 253 249 246 247 243 229 219 213 214
242 253 261 270 246 226 231 237 209 205 214 234 241 251 263 267 268 261 259 256 247 251 237 262 283 270 261 261 272 253 241 241 241 243 245 241 237 227 218 214 212 207 208 209
238 237 240 233 219 221 227 225 223 225 225 232 246 257 263 259 262 258 245 236 232 227 229 232 227 229 233 234 238 238 234 234 233 234 231 228 217 207 207 209 212 215 220 234
248 240 231 233 224 213 215 221 225 227 232 234 240 246 252 257 258 255 249 246 236 228 231 234 231 228 228 229 229 227 220 215 214 213 213 217 216 215 213 216 222 228 240 239